SHIKONGXING 01

导读

SHIKONGXING 01卫星是中国于2025年9月24日发射的空间卫星,作为中方自主研制发射的卫星任务,它承载着相关空间技术试验与应用探索使命。该卫星入轨后将按既定设计开展在轨工作,助力中国在对应航天领域积累实践经验,推动相关空间技术迭代发展,服务后续航天工程规划与空间应用拓展。

基本信息
目录编号:
65712
目录名称:
SHIKONGXING 01
国际标识:
2025-214A
轨道中心:
EARTH
卫星名称:
SHIKONGXING 01
卫星全名:
SHIKONGXING 01
卫星状态:
在轨 (已飞行355 天)
发射日期:
2025-09-24 UTC
国别 :
中国 (CN)
星等 :
--
该卫星已列入 空间交会检测服务 Space Conjunction Data Service (SCDS) ,当前飞行风险评估等级: 无高风险
轨道信息
数据来源 国际轨道数据 AOE轨道数据
星历时间 2026-09-14T06:40:22+0800
8小时前
查看轨道信息
2026-09-12T23:00:00+0800
1天前
查看轨道信息
半长轴 6966.257km 6966.277km
偏心率 0.0013224 0.0013146
轨道倾角 49.986° 49.985°
近地点辐角 237.408° 233.005°
升交点赤经 236.520° 242.734°
平近点角 122.559° 228.015°
近地点 578.907km 578.982km
远地点 597.333km 597.298km
周期 96.440分钟 96.441分钟
每日圈数 14.931505 14.931439
详细信息
使用方式:
暂无
2D轨道图
3D轨道图
轨道高度分析图
轨道倾角分析图
轨道综合分析图
查看轨道综合分析图
与全量物体交会距离演化趋势 订阅飞行安全评估服务
与全量物体交会风险概率演化趋势 订阅飞行安全评估服务